Location: *
(58.4167°N, 22.5000°E)
Time: 15:55:54
(UTC+00:00)

ARGOS - Pass Details

Date: 22 September 2019
Orbit: 821 x 834 km, 98.5° (Epoch: 22 October)

Event Time Altitude Azimuth Distance (km) Brightness Sun altitude
Exits shadow 17:57:46 - 156° (SSE) 2,882 5.6 -12.0°
Reaches altitude 10° 17:58:55 10° 156° (SSE) 2,426 5.2 -12.1°
Maximum altitude 18:04:18 81° 71° (ENE) 846 3.1 -12.8°
Drops below altitude 10° 18:09:45 10° 344° (NNW) 2,451 6.2 -13.4°
Sets 18:12:07 0° 344° (NNW) 3,390 7.0 -13.7°
